This is the latest recevied weather packets stored in our database for station/object N9GKE-1. If no packets are shown the sender has not sent any weather packets the latest 10 day(s).
| Time | Temp. | Humidity | Pressure | Rain* | Wind** | Luminosity | Snow |
|---|---|---|---|---|---|---|---|
| 1778040094 | 8.89° C | 95% | 1010.4 hPa | 0 mm | - | - | - |
| 1778039493 | 8.89° C | 95% | 1010.1 hPa | 0.51 mm | - | - | - |
| 1778038894 | 8.89° C | 95% | 1010.4 hPa | 0.51 mm | - | - | - |
| 1778038294 | 8.89° C | 95% | 1010.1 hPa | 0.51 mm | - | - | - |
| 1778037694 | 8.89° C | 95% | 1009.8 hPa | 0.51 mm | - | - | - |
| 1778037094 | 8.89° C | 95% | 1009.9 hPa | 0.51 mm | - | - | - |
| 1778036495 | 8.89° C | 95% | 1009.8 hPa | 0.51 mm | - | - | - |
| 1778035895 | 8.89° C | 95% | 1009.6 hPa | 0.25 mm | - | - | - |
| 1778035295 | 8.89° C | 95% | 1009.4 hPa | 0.25 mm | - | - | - |
| 1778034694 | 8.89° C | 95% | 1009.2 hPa | 0.25 mm | - | - | - |
| 1778034094 | 8.89° C | 95% | 1009.2 hPa | 0.25 mm | - | - | - |
| 1778033494 | 8.89° C | 95% | 1009.2 hPa | 0 mm | - | - | - |
| 1778032895 | 8.89° C | 95% | 1009.3 hPa | 0 mm | - | - | - |
| 1778032294 | 8.89° C | 95% | 1009.3 hPa | 0 mm | - | - | - |
| 1778031693 | 8.89° C | 94% | 1009.2 hPa | 0 mm | - | - | - |
| 1778031094 | 8.89° C | 94% | 1008.8 hPa | 0.25 mm | - | - | - |
| 1778030493 | 8.89° C | 94% | 1008.6 hPa | 0.25 mm | - | - | - |
| 1778029895 | 8.89° C | 94% | 1008.6 hPa | 0.25 mm | - | - | - |
| 1778029296 | 8.89° C | 94% | 1008.6 hPa | 0.25 mm | - | - | - |
| 1778028695 | 8.89° C | 94% | 1008.7 hPa | 0.25 mm | - | - | - |
| 1778028094 | 8.89° C | 94% | 1008.7 hPa | 0.25 mm | - | - | - |
| 1778027496 | 8.89° C | 94% | 1008.7 hPa | 0 mm | - | - | - |
| 1778026894 | 8.89° C | 94% | 1008.6 hPa | 0.25 mm | - | - | - |
| 1778026295 | 8.89° C | 93% | 1008.7 hPa | 0.51 mm | - | - | - |
| 1778025695 | 8.89° C | 93% | 1008.8 hPa | 0.76 mm | - | - | - |
* Rain latest hour (hover to see other rain measurements)
** Current wind speed in m/s (hover to see current wind gust speed)